パンスターズ彗星

C/2017 U7 ( PanSTARRS )

English version
Home page
Updated on July 12, 2021

---------------------------------------------------------------------

・ プロフィール

発見日 2017年10月29日
発見光度 20.1等
発見者 Pan-STARRS 1 telescope (Haleakala)

・ 写真集

・ 軌道要素

Epoch 2019 Aug. 25.0 TT = JDT 2458720.5
T 2019 Sept. 11.28328 TT                                Rudenko
q   6.4172669            (2000.0)            P               Q
z  -0.0001200      Peri.  326.03237     +0.53147768     -0.59461050
 +/-0.0000006      Node   276.23228     -0.57731099     -0.77545364
e   1.0007701      Incl.  142.63533     -0.61987378     +0.21239114
From 741 observations 2017 Aug. 18-2021 May 30, mean residual 0".6.

・ 星図

・ 光度変化

        m1 = -8.5 + 5 logΔ + 25 log r(t - 150)

---------------------------------------------------------------------

軌道要素はM.P.E.C. 2021-L04に掲載されたものです。
星図はステラナビゲータ Ver.10 (アストロアーツ) で作成したものです。
光度グラフはComet for Windowsで作成したものです。

---------------------------------------------------------------------

Copyright(C) Seiichi Yoshida (comet@aerith.net). All rights reserved.